Flag for U.S.A. Weather past 2 weeks in Bloomington, Illinois, U.S.A.

Now
71 °F

Passing clouds.


Feels Like: 68 °F
Forecast: 69 / 84 °F
Wind: 9 mph from Southwest

Location: Bloomington / Normal

Current Time: Aug 21, 2014 at 5:33:25 AM

Latest Report: Aug 21, 2014 at 4:56 AM


Visibility: 10 mi

Pressure: 29.91 "Hg

Humidity: 91%

Dew point: 68 °F

Location of BloomingtonLocation

Historic Weather in Bloomington — Graph

°F

Bloomington temperature yesterday

Maximum temperature yesterday: 80 °F (at 4:56 PM)
Minimum temperature yesterday: 63 °F (at 6:04 AM)
Average temperature yesterday: 71 °F

Past Weeks' High & Low Weather Summary

 TemperatureHumidityPressure
High84 °F (Aug 19, 3:56 PM)100% (Aug 6, 9:03 AM)30.11 "Hg (Aug 6, 9:03 AM)
Low53 °F (Aug 15, 12:56 AM)45% (Aug 13, 1:56 PM)29.73 "Hg (Aug 19, 2:56 PM)
Average69 °F79%29.96 "Hg
* Reported Aug 6 3:56 AM — Aug 21 3:56 AM, Bloomington, Weather by CustomWeather, © 2014

Note: Actual official high and low records may vary slightly from our data, if they occured in-between our weather recording intervals... More about our weather records

Advertising

Bloomington weather history for previous 24 hours

 ConditionsComfort  
Time TempWeatherWind HumidityBarometerVisibility
3:56 AM
Aug 21
69 °FClear.8 mph93%29.92 "Hg10 mi
2:56 AM69 °FPassing clouds.6 mph93%29.93 "Hg10 mi
1:56 AM70 °FPassing clouds.8 mph90%29.94 "Hg10 mi
12:56 AM71 °FClear.7 mph87%29.94 "Hg10 mi
11:56 PM
Aug 20
71 °FClear.10 mph91%29.95 "Hg10 mi
10:56 PM71 °FClear.8 mph91%29.95 "Hg10 mi
9:56 PM73 °FClear.8 mph85%29.94 "Hg10 mi
8:56 PM73 °FClear.10 mph85%29.91 "Hg10 mi
7:56 PM75 °FSunny.9 mph79%29.89 "Hg10 mi
6:56 PM78 °FSunny.13 mph74%29.91 "Hg10 mi
5:56 PM76 °FLight rain. Broken clouds.12 mph74%29.91 "Hg10 mi
4:56 PM80 °FLight rain. Scattered clouds.15 mph65%29.90 "Hg10 mi
3:56 PM77 °FSunny.13 mph74%29.91 "Hg10 mi
2:56 PM75 °FSunny.10 mph74%29.90 "Hg10 mi
1:56 PM76 °FSunny.15 mph71%29.92 "Hg10 mi
12:56 PM74 °FScattered clouds.9 mph84%29.93 "Hg10 mi
11:56 AM71 °FLight rain. Broken clouds.14 mph93%29.90 "Hg10 mi
10:56 AM73 °FScattered clouds.10 mph85%29.96 "Hg10 mi
9:56 AM74 °FPartly sunny.6 mph79%29.91 "Hg10 mi
8:56 AM74 °FPassing clouds.5 mph76%29.88 "Hg10 mi
7:56 AM70 °FPassing clouds.5 mph84%29.88 "Hg10 mi
6:56 AM63 °FClear.3 mph93%29.86 "Hg10 mi
6:04 AM63 °FFog.5 mph94%29.90 "Hg1 mi
5:56 AM64 °FClear.No wind93%29.85 "Hg10 mi
Weather by CustomWeather, © 2014

See weather overviewHow to use our weather pages